Location: Unspecified
(50.7693°N, 0.0000°E)
Time: 17:09:31
(UTC+00:00)

Vanguard 1 - Pass Details

Date: 25 June 2019
Orbit: 655 x 3829 km, 34.2° (Epoch: 16 August)

Event Time Altitude Azimuth Distance (km) Brightness Sun altitude
Exits shadow 02:08:58 10° 223° (SW) 6,525 13.6 -10.8°
Maximum altitude 02:25:09 34° 168° (SSE) 3,706 12.6 -9.4°
Drops below altitude 10° 02:35:31 10° 110° (ESE) 4,195 13.5 -8.5°
Sets 02:38:34 0° 100° (E) 4,817 14.0 -8.2°
